AirNav   Air Wisconsin pilot careers
 
 1055 users online  

7N0 New Orleans Downtown Heliport
New Orleans, Louisiana, USA

GOING TO NEW ORLEANS?


FAA INFORMATION EFFECTIVE 29 MARCH 2018

Location

FAA Identifier: 7N0
Lat/Long: 29-57-09.6600N / 090-04-57.8400W
29-57.161000N / 090-04.964000W
29.9526833 / -90.0827333
(estimated)
Elevation: 30 ft. / 9 m (estimated)
Variation: 02E (1995)
Time zone: UTC -5 (UTC -6 during Standard Time)
Zip code: 70112

Heliport Operations

Heliport use: Open to the public
Activation date: 01/1997
Control tower: no
ARTCC: HOUSTON CENTER
FSS: DE RIDDER FLIGHT SERVICE STATION
NOTAMs facility: DRI (NOTAM-D service available)
Attendance: 
Wind indicator: lighted
Segmented circle: no
Lights: SS-SR
Beacon: white-green-yellow (heliport)
Operates sunset to sunrise.
Landing fee: yes

Heliport Communications

CTAF/UNICOM: 123.05
WX AWOS-3PT: 133.10 (504-525-1711)
WX ASOS at NEW (6 nm NE): PHONE 504-245-4366
WX ASOS at MSY (9 nm W): PHONE (504)471-4486

Nearby radio navigation aids

VOR radial/distance  VOR name  Freq  Var
HRVr324/7.4HARVEY VORTAC114.1002E
RQRr105/27.5RESERVE VOR/DME110.8002E
HMUr153/(38.2)HAMMOND VOR109.6000E

Heliport Services

Runway Information

Helipad H1

Dimensions: 40 x 40 ft. / 12 x 12 m
Surface: concrete, in good condition
Runway edge lights: APPROACH LIGHTING NON-STANDARD
Runway edge markings: HELIPAD MKD WITH REFLECTIVE PAINT.
Operational restrictions: ROOFTOP OF PARKING GARAGE.
Traffic pattern: leftleft
Markings: NSTD, in good condition

Heliport Ownership and Management from official FAA records

Ownership: Publicly-owned
Owner: CITY OF NEW ORLEANS
PO BOX 20007
NEW ORLEANS, LA 70141
Phone 504-303-7700
NEW ORLEANS AVIATION BOARD.
Manager: IFTIKHAR AHMAD
NEW ORLEANS DOWNTOWN HELIPORT, C/O LOUISIANA SUPERDOME
NEW ORLEANS, LA 70112
Phone (504) 303-7522
PHONE LOCATED AT HELIPORT.

Heliport Operational Statistics

Aircraft operations: avg 56/week *
69% transient general aviation
31% military
* for 12-month period ending 19 July 2016

Additional Remarks

A52-H1 200 FT LGTD TWR 1000 FT SSW, 500 FT BLDGS 700 FT ENE, 350 FT BLDG 375 FT SE & 1100 FT S OF HELIPAD.
RY H1 INGRESS 210 DEGS FOR WEST APCH; 070 DEGS FOR EAST APCH.
FOR CD CTC MSY APCH AT 504-471-4350.
HELIPORT UNATTENDED PERMANENTLY

Instrument Procedures

There are no published instrument procedures at 7N0.

Some nearby airports with instrument procedures:

KNEW - Lakefront Airport (6 nm NE)
KNBG - New Orleans Naval Air Station Joint Reserve Base//Alvin Callender Field (8 nm S)
KMSY - Louis Armstrong New Orleans International Airport (9 nm W)
KAPS - Port of South Louisiana Executive Regional Airport (27 nm W)
KASD - Slidell Airport (27 nm NE)
 
Loc | Ops | Rwys | IFR | FBO | Links
Com | Nav | Svcs | Stats | Notes

AirNav Hotels Sweepstakes
 
Area around 7N0 (New Orleans Downtown Heliport)
 
Road maps at: MapQuest Bing Google
 
Aerial photo
WARNING: Photo may not be current or correct
Aerial photo of 7N0 (New Orleans Downtown Heliport)
Photo by Malen Eyerly
Photo taken 31-Dec-2008

Do you have a better or more recent aerial photo of New Orleans Downtown Heliport that you would like to share? If so, please send us your photo.

 
Sectional chart

 
Airport distance calculator
Flying to New Orleans Downtown Heliport? Find the distance to fly.

From to 7N0

Sunrise and sunset
Times for 21-Apr-2018
 Local
(UTC-5)
 Zulu
(UTC)
Morning civil twilight06:0311:03
Sunrise06:2811:28
Sunset19:3000:30
Evening civil twilight19:5500:55

Current date and time
Zulu (UTC)  21-Apr-2018 15:56:43
Local (UTC-5)  21-Apr-2018 10:56:43
 
METAR
K7N0 211456Z AUTO VRB05KT 10SM FEW035 21/13 A3017 RMK AO2 SLP215 T02110128 51014
KNEW 
6nm NE 
211453Z 12008KT 10SM FEW038 21/13 A3017 RMK AO2 SLP209 T02110133 51015
KNBG 
9nm SE 
211455Z 09008KT 10SM SCT038 BKN250 20/16 A3015 RMK AO2 SLP210 T02000156 51014 $
KMSY 
9nm W 
211453Z 11009KT 10SM SCT035 SCT150 22/14 A3015 RMK AO2 SLP214 T02170144 51012
TAF
KNEW 
6nm NE 
211120Z 2112/2212 08007KT P6SM SCT250 FM211400 11009KT P6SM BKN250 FM220300 11009KT P6SM OVC025 FM221100 13009KT P6SM VCSH OVC015
KNBG 
9nm SE 
2107/2207 09010KT 9999 SCT008 BKN018 OVC050 QNH3005INS BECMG 2114/2116 11012G18KT 9999 BKN012 OVC020 QNH2989INS BECMG 2200/2202 13010G15KT 9999 VCSH SCT008 BKN012 OVC025 QNH2991INS AUTOMATED SENSOR METWATCH 2107 TIL 2113 T12/2112Z T19/2121Z FN00162
KMSY 
9nm W 
211120Z 2112/2218 09005KT P6SM SCT250 FM211500 12008KT P6SM BKN090 FM220300 11007KT P6SM OVC025 FM221200 14008KT 2SM SHRA VCTS OVC015CB FM221600 17010KT 2SM SHRA VCTS OVC015CB
NOTAMs
Click for the latest NOTAMs
NOTAMs are issued by the DoD/FAA and will open in a separate window not controlled by AirNav.

 

 
 

Would you like to see your business listed on this page?

 If your business provides an interesting product or service to pilots, flight crews, aircraft, or users of the New Orleans Downtown Heliport, you should consider listing it here.  To start the listing process, click on the button below
 
Add a business
 

Other Pages about New Orleans Downtown Heliport

Update a link
 
Copyright © AirNav, LLC. All rights reserved. Privacy Policy  Contact